Total_Precipitation_Accumulation
0.64 0.90 0.95 0.81 0.84 0.91 0.83 0.81 0.79 0.71 0.63 0.63 0.55 0.50 0.50 0.42 0.33 0.27 0.23 0.22 0.23 0.23 0.22 0.18 0.16 0.17 0.19 0.18 0.19 0.24 0.29 0.32 0.34 0.42 0.53 0.62 0.72 0.90 1.11 1.17 1.22 1.36 1.38 1.40
0.67 0.70 0.59 0.62 0.70 0.80 0.77 0.70 0.71 0.62 0.54 0.52 0.51 0.50 0.47 0.38 0.31 0.23 0.21 0.18 0.17 0.20 0.18 0.14 0.12 0.12 0.12 0.10 0.12 0.18 0.27 0.36 0.42 0.48 0.62 0.77 1.00 1.11 1.25 1.40 1.39 1.42 1.47 1.50
0.56 0.49 0.46 0.55 0.66 0.73 0.74 0.65 0.56 0.55 0.53 0.50 0.47 0.54 0.51 0.42 0.32 0.24 0.21 0.18 0.16 0.18 0.16 0.12 0.09 0.09 0.10 0.09 0.11 0.18 0.32 0.51 0.72 0.82 1.05 1.33 1.58 1.66 1.58 1.57 1.61 1.60 1.64 1.70
0.63 0.46 0.46 0.56 0.59 0.60 0.71 0.50 0.42 0.46 0.51 0.55 0.41 0.53 0.46 0.41 0.39 0.29 0.25 0.22 0.19 0.22 0.22 0.16 0.14 0.11 0.11 0.13 0.23 0.38 0.62 0.92 1.17 1.32 1.52 1.72 1.83 1.87 1.80 1.81 1.80 1.78 1.70 1.63
0.64 0.49 0.48 0.53 0.50 0.46 0.57 0.46 0.42 0.45 0.47 0.44 0.34 0.37 0.34 0.34 0.42 0.38 0.36 0.33 0.32 0.31 0.26 0.26 0.27 0.26 0.31 0.41 0.60 0.89 1.15 1.39 1.53 1.58 1.68 1.88 2.04 2.19 2.20 2.08 1.94 1.82 1.78 1.71
0.54 0.47 0.51 0.53 0.48 0.42 0.46 0.49 0.51 0.48 0.49 0.51 0.34 0.29 0.34 0.34 0.38 0.42 0.44 0.39 0.36 0.34 0.33 0.41 0.52 0.62 0.74 0.84 1.02 1.24 1.38 1.53 1.52 1.52 1.58 1.71 1.90 2.06 2.08 2.10 2.06 1.93 1.78 1.68
0.54 0.53 0.49 0.45 0.48 0.47 0.47 0.56 0.67 0.65 0.60 0.51 0.30 0.36 0.37 0.30 0.30 0.37 0.41 0.40 0.38 0.37 0.44 0.61 0.77 0.90 1.00 1.10 1.21 1.25 1.24 1.29 1.30 1.32 1.36 1.44 1.50 1.54 1.60 1.70 1.62 1.49 1.36 1.31
0.43 0.49 0.42 0.36 0.36 0.41 0.42 0.41 0.55 0.60 0.52 0.44 0.35 0.49 0.45 0.34 0.29 0.29 0.32 0.38 0.47 0.60 0.70 0.81 0.91 1.01 1.04 1.16 1.22 1.17 1.15 1.13 1.06 1.00 1.06 1.07 1.12 1.17 1.20 1.22 1.17 1.09 1.04 1.01
0.30 0.37 0.32 0.28 0.27 0.31 0.35 0.33 0.35 0.47 0.43 0.41 0.39 0.52 0.48 0.32 0.27 0.26 0.28 0.36 0.51 0.72 0.96 1.11 1.10 1.01 0.92 0.96 1.04 1.02 0.98 0.93 0.85 0.79 0.82 0.85 0.92 0.95 0.93 0.91 0.86 0.84 0.78 0.78
0.25 0.34 0.35 0.31 0.29 0.29 0.27 0.29 0.36 0.50 0.53 0.52 0.46 0.55 0.47 0.35 0.31 0.28 0.33 0.42 0.60 0.82 1.02 1.29 1.41 1.29 1.02 0.82 0.84 0.81 0.77 0.80 0.80 0.75 0.77 0.77 0.70 0.65 0.66 0.69 0.63 0.62 0.67 0.71
0.18 0.27 0.31 0.30 0.28 0.27 0.26 0.30 0.37 0.46 0.45 0.56 0.75 0.79 0.63 0.52 0.47 0.45 0.50 0.55 0.62 0.89 1.18 1.33 1.38 1.25 1.07 0.79 0.71 0.70 0.67 0.70 0.77 0.70 0.72 0.71 0.61 0.49 0.47 0.47 0.45 0.45 0.49 0.55
0.14 0.23 0.26 0.24 0.23 0.21 0.26 0.32 0.42 0.59 0.60 0.54 0.66 0.72 0.55 0.57 0.64 0.58 0.63 0.72 0.73 0.79 0.83 0.86 0.98 1.00 0.93 0.79 0.72 0.77 0.81 0.81 0.72 0.66 0.62 0.58 0.51 0.44 0.43 0.41 0.38 0.40 0.45 0.47
0.10 0.19 0.26 0.24 0.25 0.25 0.37 0.43 0.36 0.48 0.60 0.58 0.68 0.71 0.49 0.51 0.61 0.62 0.69 0.76 0.78 0.73 0.61 0.54 0.66 0.80 0.75 0.68 0.71 0.79 0.93 0.93 0.84 0.71 0.60 0.57 0.52 0.49 0.47 0.42 0.41 0.41 0.48 0.59
0.06 0.14 0.18 0.22 0.23 0.31 0.58 0.67 0.46 0.50 0.66 0.53 0.51 0.54 0.46 0.46 0.54 0.58 0.66 0.71 0.68 0.59 0.48 0.43 0.42 0.44 0.43 0.45 0.49 0.61 0.86 1.05 1.02 0.91 0.78 0.68 0.61 0.54 0.48 0.44 0.43 0.42 0.45 0.51
0.06 0.09 0.09 0.10 0.12 0.19 0.39 0.44 0.36 0.34 0.33 0.36 0.34 0.37 0.46 0.53 0.55 0.56 0.58 0.52 0.42 0.36 0.31 0.26 0.23 0.23 0.24 0.29 0.36 0.46 0.72 0.93 0.94 0.93 0.81 0.67 0.55 0.45 0.43 0.46 0.49 0.46 0.41 0.44
0.05 0.06 0.06 0.07 0.07 0.09 0.14 0.11 0.10 0.13 0.18 0.24 0.28 0.37 0.44 0.46 0.46 0.48 0.48 0.36 0.31 0.26 0.24 0.23 0.20 0.17 0.13 0.13 0.19 0.28 0.46 0.62 0.69 0.75 0.71 0.56 0.49 0.44 0.39 0.42 0.48 0.49 0.39 0.38
0.05 0.07 0.08 0.08 0.05 0.08 0.08 0.06 0.12 0.15 0.17 0.20 0.31 0.43 0.48 0.50 0.55 0.85 0.87 0.55 0.38 0.33 0.28 0.28 0.27 0.23 0.19 0.16 0.16 0.18 0.25 0.33 0.40 0.46 0.47 0.37 0.35 0.42 0.43 0.45 0.44 0.38 0.31 0.34
0.05 0.07 0.11 0.10 0.08 0.11 0.07 0.05 0.11 0.15 0.14 0.14 0.17 0.20 0.25 0.36 0.51 0.67 0.76 0.61 0.43 0.39 0.30 0.27 0.24 0.21 0.18 0.15 0.14 0.15 0.16 0.19 0.21 0.21 0.18 0.15 0.22 0.31 0.32 0.31 0.28 0.23 0.23 0.29
0.04 0.07 0.10 0.10 0.18 0.16 0.05 0.04 0.06 0.08 0.07 0.05 0.06 0.07 0.09 0.12 0.14 0.15 0.21 0.24 0.21 0.18 0.13 0.09 0.07 0.06 0.05 0.06 0.05 0.05 0.03 0.03 0.03 0.03 0.03 0.05 0.07 0.08 0.07 0.07 0.08 0.11 0.16 0.20
0.04 0.05 0.07 0.08 0.13 0.11 0.04 0.02 0.02 0.04 0.08 0.03 0.02 0.02 0.02 0.06 0.09 0.08 0.14 0.09 0.03 0.02 0.02 0.02 0.03 0.03 0.02 0.02 0.03 0.02 0.02 0.02 0.02 0.02 0.01 0.01 0.02 0.02 0.02 0.02 0.02 0.03 0.06 0.10
0.05 0.06 0.07 0.07 0.09 0.04 0.02 0.01 0.01 0.05 0.05 0.01 0.01 0.01 0.01 0.01 0.02 0.03 0.09 0.08 0.01 0.01 0.01 0.02 0.03 0.03 0.03 0.02 0.02 0.01 0.01 0.01 0.02 0.01 0.01 0.01 0.01 0.02 0.03 0.03 0.02 0.01 0.01 0.03
0.03 0.05 0.04 0.05 0.06 0.04 0.01 0.01 0.02 0.02 0.01 0.01 0.01 0.01 0.01 0.01 0.01 0.01 0.04 0.06 0.01 0.01 0.01 0.02 0.02 0.02 0.02 0.02 0.02 0.01 0.01 0.01 0.01 0.01 0.01 0.01 0.01 0.02 0.02 0.03 0.02 0.01 0.01 0.02
0.02 0.02 0.03 0.03 0.03 0.02 0.01 0.01 0.01 0.01 0.01 0.01 0.02 0.02 0.01 0.01 0.01 0.00 0.02 0.06 0.02 0.01 0.02 0.02 0.02 0.02 0.02 0.02 0.02 0.01 0.01 0.02 0.02 0.01 0.01 0.01 0.01 0.02 0.02 0.02 0.02 0.02 0.02 0.02
0.02 0.01 0.01 0.01 0.01 0.01 0.01 0.01 0.01 0.00 0.01 0.01 0.02 0.03 0.02 0.02 0.01 0.00 0.01 0.05 0.03 0.01 0.01 0.01 0.01 0.01 0.02 0.02 0.02 0.02 0.02 0.03 0.02 0.02 0.01 0.01 0.02 0.02 0.02 0.02 0.01 0.02 0.02 0.02
0.01 0.01 0.01 0.02 0.01 0.01 0.00 0.00 0.00 0.00 0.00 0.01 0.01 0.02 0.02 0.02 0.02 0.01 0.00 0.02 0.02 0.01 0.01 0.01 0.01 0.01 0.01 0.02 0.02 0.02 0.02 0.02 0.02 0.03 0.02 0.02 0.02 0.03 0.03 0.02 0.02 0.02 0.02 0.03
0.00 0.01 0.02 0.01 0.01 0.01 0.00 0.00 0.00 0.00 0.00 0.00 0.00 0.01 0.02 0.02 0.02 0.01 0.01 0.01 0.01 0.01 0.01 0.01 0.01 0.02 0.02 0.01 0.02 0.02 0.02 0.02 0.02 0.03 0.02 0.02 0.02 0.03 0.03 0.03 0.03 0.03 0.03 0.04